Location: Fenile
(46.0500°N, 9.5500°E)
Time: 07:53:49
(UTC+00:00)

Cosmos 2360 Rocket - Pass Details

Date: 03 March 2021
Orbit: 832 x 846 km, 71.0° (Epoch: 10 April)

Event Time Altitude Azimuth Distance (km) Brightness Sun altitude
Rises 18:36:29 0° 202° (SSW) 3,375 5.5 -15.6°
Reaches altitude 10° 18:38:54 10° 202° (SSW) 2,447 4.8 -16.0°
Maximum altitude 18:44:32 85° 116° (ESE) 850 2.1 -17.0°
Drops below altitude 10° 18:50:13 10° 27° (NNE) 2,472 4.4 -17.9°
Sets 18:52:41 0° 27° (NNE) 3,413 5.2 -18.4°
